User: anonymous   Login
Location: Unspecified
(0.0000°N, 0.0000°E)
Time: 13:06:21
(UTC+00:00)
Language:

USA 189 - Orbit

View from above orbital plane
View from above orbital plane
View from above satellite
View from above satellite

Ground track
Ground track

The orbit data is extracted from the following two-line orbital elements,

1 29242U 06024C   20176.14567250 0.00000000  00000-0  00000-0 0    00
2 29242   9.2405  35.7916 0003420 127.5086 232.5346  1.04033964    05
Epoch (UTC): 24 June 2020 03:29:46
Eccentricity: 0.0003420
inclination: 9.2405°
perigee height: 34749 km
apogee height: 34777 km
right ascension of ascending node: 35.7916°
argument of perigee: 127.5086°
revolutions per day: 1.04033964
mean anomaly at epoch: 232.5346°
orbit number at epoch: 0

The dashed part of the orbit path shows where the satellite is in the earth's shadow,  

DLR